Terminal Aerodrome Forecast
Issued by NWS Huntsville, AL

Home | Current Version | Previous Version | Text Only | Print | Product List | Glossary On
Versions: 1 2 3 4 5 6 7 8 9 10 11 12 13 14 15 16 17 18 19 20 21 22 23 24 25 26 27 28 29 30 31 32
000
FTUS44 KHUN 240530
TAFMSL
TAF
KMSL 240530Z 2406/2506 15013KT P6SM SCT040 SCT250
     FM240900 15008G16KT P6SM BKN015 OVC025 WS018/17035KT
     FM241500 16012G20KT P6SM BKN025 OVC035
     FM241800 18012G18KT P6SM SCT035 BKN050=

USA.gov is the U.S. government's official web portal to all federal, state and local government web resources and services.